Zurück zum Katalog

STARLINK-37435

AktivKommunikationVLEO
NORAD 69265·PAYLOAD·🇺🇸 United States

Gestartet May 29, 2026 von Cape Canaveral Space Force Station

Loading…

Nächste Überflüge (nächste 24 Stunden)

TLE

AktuellSource: CelesTrak SupGP

Epoche: Sep 15, 2026, 04:16 UTC

1 69265C 26117AD  26258.17826389  .00004030  00000+0  11907-3 0  2587
2 69265  53.1567 178.7016 0001328  78.9485 101.5173 15.34388738    11

Verfolge STARLINK-37435 in Echtzeit mit AllMySat

Download on the App Store